Tracking 19431 objects as of 18-Dec-2018
HD Live streaming from Space Station
objects crossing your sky now

CP5

Track CP5 now!
10-day predictions
CP5 is classified as:


NORAD ID: 38763
Int'l Code: 2012-048F
Perigee: 470.4 km
Apogee: 716.7 km
Inclination: 64.7 °
Period: 96.4 minutes
Semi major axis: 6964 km
RCS: Unknown
Launch date: September 13, 2012
Source: United States (US)
Launch site: AIR FORCE WESTERN TEST RANGE (AFWTR)

Uplink (MHz):
Downlink (MHz): 437.405
Beacon (MHz): 437.405
Mode: 1200bps AFSK CW
Call sign: CP5
Status: Inactive

aabbcc
Your satellite tracking list
Your tracking list is empty




NASA's NSSDC Master Catalog

Two Line Element Set (TLE):
1 38763U 12048F   18351.37460232 +.00000347 +00000-0 +38496-4 0 05430
2 38763 064.6649 135.3031 0176872 296.4822 061.8240 14.93702997081500
Source of the keplerian elements: Caltech